Date,TemperatureHighF,TemperatureAvgF,TemperatureLowF,DewpointHighF,DewpointAvgF,DewpointLowF,HumidityHigh,HumidityAvg,HumidityLow,PressureMaxIn,PressureMinIn,WindSpeedMaxMPH,WindSpeedAvgMPH,GustSpeedMaxMPH,PrecipitationSumIn
2012-12-4,59.2,47.9,35.6,57.8,46.9,33.5,98,96,88,30.21,29.94,4,0,4,0.00
2012-12-5,56.1,49.9,35.6,53.8,41.8,18.5,98,75,49,30.09,29.82,0,0,0,0.00
2012-12-6,35.6,32.4,29.7,18.9,16.1,14.2,53,51,48,30.27,30.09,0,0,0,0.00
2012-12-7,37.0,30.8,25.3,20.6,19.3,17.7,77,63,49,30.24,30.18,0,0,0,0.00
2012-12-8,51.3,42.1,25.0,50.4,38.2,18.5,98,86,66,30.21,29.80,10,2,10,0.50
2012-12-9,48.2,45.7,42.8,47.7,42.4,0.0,100,89,72,30.18,29.94,14,4,14,0.24
2012-12-10,60.3,56.9,48.2,59.7,56.4,47.7,98,98,98,29.94,29.47,13,4,13,1.37
2012-12-11,56.1,45.7,38.5,55.6,37.3,24.6,98,74,54,30.12,29.50,13,6,13,1.74
2012-12-12,43.3,38.7,35.4,26.4,23.7,21.6,61,54,49,30.36,30.09,64,5,64,1.74
2012-12-13,43.3,36.4,29.1,28.5,25.2,22.0,82,64,50,30.39,30.24,12,2,12,0.00
2012-12-14,47.1,38.1,27.3,31.6,27.2,23.4,88,66,49,30.24,30.03,11,4,11,0.00
2012-12-15,45.7,40.3,33.3,33.2,28.1,24.9,81,62,50,30.24,30.12,13,4,13,1.74
2012-12-16,44.2,42.8,40.8,43.7,38.9,31.6,98,87,69,30.18,29.85,18,6,18,0.04
2012-12-17,47.3,45.0,43.0,46.8,44.5,42.5,98,98,98,29.88,29.71,13,4,13,0.46
2012-12-18,52.5,48.3,42.4,52.0,47.1,40.7,98,96,82,29.50,29.41,20,5,20,0.78
2012-12-19,47.8,43.7,39.4,41.3,31.0,25.0,84,61,51,30.00,29.47,70,12,70,0.46
2012-12-20,44.6,40.6,36.5,39.7,29.8,0.0,85,66,48,30.15,29.85,17,6,17,0.46
2012-12-21,56.7,46.7,37.6,56.1,41.2,26.2,98,82,60,29.85,29.06,44,11,44,0.87
2012-12-22,40.1,37.4,35.6,31.7,23.6,18.8,80,58,49,29.71,29.26,32,16,32,0.87
2012-12-23,41.7,37.9,32.0,26.3,22.7,19.3,63,54,50,29.85,29.71,20,10,20,4.39
2012-12-24,39.4,36.4,32.7,33.3,22.9,20.2,92,58,49,30.03,29.85,19,4,19,0.00
2012-12-25,38.8,36.4,32.0,38.3,32.1,19.3,98,85,59,30.15,29.82,18,6,18,0.21
2012-12-26,42.3,34.6,27.9,41.6,26.7,15.8,98,74,57,30.21,29.50,30,6,30,0.42
2012-12-27,46.0,40.8,34.3,45.5,37.6,24.5,98,89,67,29.68,29.17,34,12,34,0.66
2012-12-28,37.6,33.6,29.8,24.6,21.6,17.0,71,61,56,30.00,29.68,25,11,25,5.68
2012-12-29,39.2,33.8,31.1,36.2,30.0,23.0,98,86,71,29.97,29.35,10,4,10,0.46
2012-12-30,34.2,32.0,28.8,33.0,21.1,12.2,97,65,49,30.03,29.41,26,15,26,0.42
2012-12-31,37.4,32.5,25.3,23.5,19.4,11.9,68,58,50,30.06,29.79,22,8,22,0.46